Weather Roundup
Issued by NWS Chicago, IL

Home | Current Version | Previous Version | Text Only | Print | Product List | Glossary Off
Versions: 1 2 3 4 5 6 7 8 9 10 11 12 13 14 15 16 17 18 19 20 21 22 23 24 25 26 27 28 29 30 31 32 33 34 35 36 37 38 39 40 41 42 43 44 45 46 47 48 49 50

000
NZUS59 KLOT 280412
HRRLOT

CHICAGO AREA WEATHER ROUNDUP
NATIONAL WEATHER SERVICE CHICAGO/ROMEOVILLE IL
1100 PM CDT FRI MAR 27 2015

NOTE: "FAIR" INDICATES FEW OR NO CLOUDS BELOW 12,000 FEET WITH NO
SIGNIFICANT WEATHER AND/OR OBSTRUCTIONS TO VISIBILITY.

* THESE STATIONS ARE NOT UNDER NWS QUALITY CONTROL. THEY ALSO MAY NOT
  REPORT WEATHER SUCH AS PRECIPITATION OR FOG.

ILZ005-006-012>014-019>023-280500-
NORTHEAST ILLINOIS

CITY           SKY/WX    TMP DP  RH WIND       PRES   REMARKS
OHARE          PTCLDY    23  14  68 N5        30.21R WCI  17
MIDWAY         PTCLDY    27  14  58 N9        30.22R WCI  18
AURORA           N/A     22  13  68 NE3       30.22S
LANSING*       CLEAR     26  11  54 N9        30.21S WCI  16
JOLIET*        CLEAR     25  15  67 CALM      30.23R
WAUKEGAN       CLEAR     19  13  77 NW3       30.21S
DUPAGE AIRPORT CLEAR     20  12  71 N5        30.21R WCI  13
WHEELING       CLEAR     22  13  68 NW5       30.23R WCI  16
KANKAKEE*      CLEAR     22  16  76 NE5       30.22S WCI  16
MORRIS*        CLEAR     22  16  78 CALM      30.22R
LEWIS AIRPORT* CLEAR     22  14  71 NE3       30.22R
NORTHERLY IS     N/A     27  14  58 N15         N/A  WCI  15
$$

WIZ051-052-058>065-066-070>072-280500-
SOUTHEAST WISCONSIN

CITY           SKY/WX    TMP DP  RH WIND       PRES   REMARKS
MILWAUKEE      CLEAR     24  11  57 N3        30.22R
KENOSHA*       CLEAR     19  14  81 CALM      30.22R
RACINE*        CLEAR     23  12  62 N7        30.23S WCI  15
BURLINGTON     CLEAR     17  11  78 CALM      30.21S
WAUKESHA       CLEAR     18  12  79 E6        30.21F WCI   9
WEST BEND      CLEAR     19  14  79 CALM      30.21S
$$

INZ001>003-010>013-019-020-280500-
NORTHWEST INDIANA

CITY           SKY/WX    TMP DP  RH WIND       PRES   REMARKS
GARY*          CLEAR     28   7  42 N15       30.22R WCI  16
MICHIGAN CITY* NOT AVBL
RENSSELAER*    NOT AVBL
VALPARAISO     CLEAR     22  12  65 N9        30.19R WCI  12
$$

LMZ740>746-280500-
SOUTHERN LAKE MICHIGAN

STATION/POSITION TIME  SKY/WX   TEMP WIND        PRES    VSBY
                                AIR  DIR/SP/G
                 (UTC)          (F)  (DEG/KT/KT) (MB)    (MI)
HARRISON CRIB    0300            26  360/ 18/ 22   N/A
BURNHAM HARBOR   0400            27  360/ 10/ 16   N/A
CALUMET HARBOR   0300            26  360/ 12/ 18 1021.7R
BURNS HARBOR     0300            26   20/ 19/ 26 1022.7R
MICHIGAN CITY    0300            24  350/ 23/ 26   N/A
$$

ABBREVIATIONS USED IN REMARKS
   TC - TEMPERATURE IN CELSIUS
  WCI - WIND CHILL INDEX
   HX - HEAT INDEX
  VSB - VISIBILITY
$$


USA.gov is the U.S. government's official web portal to all federal, state and local government web resources and services.